Location: Arboucave
(43.6130°N, 0.4343°W)
Time: 23:20:38
(UTC+00:00)

Cosmos 2058 - Pass Details

Date: 17 November 2025
Orbit: 529 x 540 km, 82.5° (Epoch: 11 December)

Event Time Altitude Azimuth Distance (km) Brightness Sun altitude
Rises 17:36:53 0° 359° (N) 2,705 6.2 -11.4°
Reaches altitude 10° 17:39:10 10° 8° (N) 1,811 5.2 -11.8°
Maximum altitude 17:42:53 37° 77° (ENE) 860 3.3 -12.4°
Drops below altitude 10° 17:46:34 10° 145° (SE) 1,802 5.2 -13.0°
Sets 17:48:50 0° 154° (SSE) 2,690 6.2 -13.4°
